Theta_e
319 319 319 319 319 319 318 318 317 317 317 317 317 317 317 317 317 319 325 327 330 340 345 353 353 353 355 356 354 356 361 353 351 350 350 348 347 346 346 344 344 345 341 343 342
318 319 319 319 319 319 319 318 318 317 317 317 317 317 317 317 319 325 328 329 330 339 350 352 352 354 356 352 353 355 358 349 348 349 349 348 347 346 345 344 344 343 343 343 342
317 319 319 319 319 319 319 319 318 318 317 317 317 318 318 319 329 335 331 331 333 345 351 352 353 354 354 350 349 350 349 347 347 347 346 347 347 347 346 347 346 345 345 343 342
316 317 319 319 319 319 320 319 318 318 317 317 317 318 318 323 338 336 333 333 336 348 352 352 353 355 351 347 349 349 346 346 346 346 347 347 346 348 348 347 345 344 344 343 341
314 316 318 319 319 319 320 319 318 318 317 317 317 318 319 333 335 333 336 339 341 349 351 353 353 349 348 347 347 346 345 343 344 345 346 346 346 347 347 344 344 343 344 342 342
312 314 316 318 319 319 320 320 319 318 317 317 317 318 322 333 337 332 337 345 347 349 350 351 350 349 349 347 348 346 345 344 345 345 345 346 345 345 346 345 345 343 344 343 343
311 313 315 318 319 319 320 320 319 318 317 316 316 317 326 328 336 334 339 345 347 350 351 350 350 350 347 348 346 345 345 345 345 345 345 346 347 348 344 345 346 345 344 344 343
311 312 313 316 319 319 320 320 319 318 317 316 316 317 329 323 334 337 342 344 348 349 349 349 349 349 348 347 347 348 346 347 346 345 345 347 352 346 345 345 346 347 345 344 344
310 311 312 314 318 319 319 319 319 318 316 315 318 323 329 323 334 338 342 345 348 349 349 349 348 348 347 349 352 350 352 350 346 343 346 347 351 346 346 345 346 347 347 345 344
310 311 312 313 317 319 319 318 318 317 316 315 319 326 327 328 331 338 341 341 346 348 349 349 347 348 348 348 351 352 350 348 346 345 345 346 346 346 346 346 346 347 347 346 344
311 310 311 312 315 319 319 319 322 324 323 325 326 331 329 329 330 336 336 339 344 346 350 345 348 349 348 344 340 341 345 347 347 346 347 347 348 347 346 345 346 345 347 347 346
312 311 311 312 314 319 319 327 329 327 328 322 323 325 328 330 330 332 334 336 339 346 346 346 346 347 345 344 339 341 348 349 348 348 349 350 347 347 347 347 345 346 345 346 346
312 312 311 312 313 318 321 325 327 327 329 328 324 324 325 326 331 332 333 334 337 342 345 345 346 345 344 344 339 343 348 348 349 346 347 347 349 348 348 348 346 345 345 344 345
312 313 311 312 316 322 322 323 327 326 331 330 329 326 326 327 330 332 331 334 335 338 341 344 342 345 344 343 339 344 338 340 345 345 353 347 353 347 350 351 350 346 345 344 345
312 313 312 311 325 322 325 325 325 328 336 332 330 328 326 327 330 331 330 333 335 336 340 344 342 343 344 342 338 339 337 339 340 342 343 348 346 349 347 351 351 348 346 345 345
311 313 313 312 313 323 323 324 327 332 333 335 332 330 328 326 328 329 329 332 333 335 337 340 341 341 342 341 339 338 338 340 341 340 344 346 346 350 346 349 350 350 348 346 346
311 313 314 313 322 320 323 327 332 334 336 335 332 330 328 327 329 329 331 333 334 335 336 337 338 339 339 341 340 339 339 339 343 345 355 346 345 355 347 347 346 349 349 346 345
312 314 315 313 318 320 325 331 334 334 334 335 333 329 328 329 329 329 330 332 333 333 335 336 337 338 338 339 340 341 340 341 341 339 345 344 343 350 349 348 347 349 347 346 344
313 318 319 318 313 321 327 333 334 334 335 336 333 331 330 330 330 329 329 330 332 333 334 336 336 336 337 338 339 341 340 338 336 337 338 340 348 349 349 349 348 349 345 345 344
315 323 327 323 316 323 330 330 333 332 335 336 337 335 335 333 331 330 330 330 330 332 332 333 335 334 334 335 336 336 337 337 336 339 341 340 349 350 351 350 347 345 345 346 347
318 327 326 322 319 324 330 332 332 331 333 336 337 336 335 336 334 331 330 331 331 330 331 332 333 334 332 333 335 334 334 334 335 336 338 342 350 352 352 352 350 349 350 352 351
324 328 324 320 320 324 329 331 330 332 331 334 334 335 336 334 334 331 330 332 331 331 331 331 332 333 334 334 334 333 333 333 335 337 336 339 344 345 352 354 354 356 355 353 352
329 329 322 318 323 325 327 330 331 333 332 333 334 334 335 336 334 332 331 333 332 333 333 333 331 332 334 335 334 332 333 334 334 334 337 337 358 351 353 355 356 357 357 357 356
329 330 323 320 322 326 327 330 332 331 332 331 333 333 334 336 337 339 332 333 333 332 330 333 333 332 334 336 336 335 334 335 335 335 335 336 356 356 356 357 357 358 359 359 360
327 332 329 326 325 326 327 329 329 330 330 330 331 332 334 336 337 337 337 336 336 334 334 334 336 335 334 334 335 335 335 335 335 335 336 337 351 356 357 357 356 356 355 353 352
329 330 331 327 327 327 323 329 329 329 330 332 332 332 333 335 336 338 338 338 339 337 337 336 338 337 339 337 335 335 334 333 334 336 335 336 350 353 353 353 353 352 350 348 346
320 325 328 330 330 328 328 328 329 329 330 330 331 332 332 333 333 334 335 336 338 339 339 339 338 339 341 338 338 338 336 335 335 335 336 337 339 353 354 352 351 349 348 346 345
Wind_Speed
4 3 2 1 1 2 3 3 4 4 4 3 3 4 5 6 5 6 3 5 5 2 5 6 5 4 4 9 8 8 4 6 9 10 11 11 12 9 12 15 9 3 15 21 22
4 3 3 2 1 2 3 4 4 5 4 3 3 4 5 6 7 10 10 6 2 3 9 8 4 3 7 7 4 5 7 4 7 13 15 11 12 10 12 13 9 18 19 21 22
4 3 2 2 2 2 3 3 5 5 5 4 3 4 4 6 5 5 7 5 5 7 8 3 2 8 13 8 1 6 1 6 8 10 14 11 13 10 15 9 14 16 21 22 20
5 3 3 2 3 2 3 3 4 5 5 4 3 3 4 2 2 0 7 6 6 11 6 2 4 16 12 7 2 4 6 6 12 6 10 11 14 7 5 12 12 17 21 21 19
6 4 3 3 3 3 3 4 5 5 5 4 3 2 3 6 3 3 7 8 8 10 7 5 11 13 7 4 1 2 7 11 15 9 12 10 8 11 12 8 13 19 20 19 18
7 5 4 4 3 4 4 4 5 6 5 4 3 2 3 10 1 4 7 8 8 8 5 5 7 7 9 6 7 4 3 11 13 9 8 10 10 10 11 11 14 19 19 18 17
8 7 5 4 4 4 4 4 5 5 5 4 3 3 6 3 4 8 11 11 9 8 5 4 7 10 8 5 1 5 9 9 12 12 11 8 11 6 14 14 15 17 18 18 16
9 7 6 4 4 4 4 5 5 5 5 4 3 2 5 5 6 12 13 11 10 10 9 9 9 11 11 5 11 15 14 7 9 9 9 8 15 13 14 15 16 16 17 18 17
9 8 6 5 4 4 4 5 5 5 5 5 2 4 6 5 10 13 14 11 10 9 11 11 11 15 9 4 6 11 10 20 16 8 10 10 20 14 13 16 16 17 17 18 18
10 9 7 4 5 4 4 4 3 4 5 4 6 7 11 11 13 15 14 10 12 10 12 14 14 12 1 2 6 7 9 14 9 12 11 12 9 8 13 15 16 19 18 18 19
11 10 8 5 4 5 6 3 4 6 14 14 10 11 9 10 13 15 14 11 12 13 15 12 12 4 12 1 8 9 12 9 10 6 6 10 11 15 18 15 18 19 21 20 18
11 10 8 5 4 7 9 7 6 5 10 21 13 12 7 13 13 16 15 14 15 14 17 7 15 16 4 8 11 8 12 6 4 6 7 11 12 8 11 16 17 20 21 22 20
13 10 8 5 5 8 10 8 5 6 9 18 21 20 17 14 15 19 20 20 14 15 16 15 6 7 7 11 10 6 6 2 7 8 13 7 11 18 11 16 17 17 19 21 22
14 10 7 2 1 5 9 9 5 5 7 15 15 16 23 16 21 15 20 19 17 17 16 13 13 6 11 10 9 8 8 6 3 10 3 21 1 33 15 16 16 18 21 22 22
14 11 7 5 6 6 5 6 4 4 6 12 14 6 18 21 13 21 19 23 18 15 10 12 14 10 15 6 7 4 5 6 2 6 11 10 6 4 6 11 15 18 22 22 22
15 12 7 6 11 10 5 4 3 7 7 9 11 13 18 21 22 11 20 23 16 19 15 18 8 8 10 5 7 7 11 11 11 9 6 23 5 9 15 2 18 21 22 20 22
15 12 9 7 5 6 7 8 7 10 6 10 12 17 19 17 21 14 17 18 16 13 15 17 20 14 18 15 14 11 15 13 11 10 5 24 17 9 10 1 5 15 21 19 19
14 12 10 11 10 10 9 10 10 9 11 4 6 15 18 17 19 16 16 18 21 22 15 15 14 24 18 16 18 9 17 13 9 2 8 26 3 6 5 6 7 13 20 20 19
12 8 7 7 15 14 15 12 12 12 3 6 9 11 17 18 11 17 17 15 19 19 18 10 10 2 11 14 18 17 15 15 15 17 9 7 10 13 9 7 14 19 20 19 17
7 6 6 8 14 14 11 17 15 3 8 6 12 13 14 16 16 16 16 14 16 16 16 17 13 6 9 10 14 16 17 11 8 14 13 0 12 6 7 7 11 18 20 20 18
3 7 6 9 13 16 12 18 18 7 7 9 11 8 12 10 15 17 13 9 9 14 14 15 13 9 7 13 18 11 15 15 19 12 4 7 5 9 6 6 10 10 12 10 10
6 6 5 14 13 18 14 21 10 9 11 11 6 12 13 10 9 16 15 9 11 10 13 14 12 11 13 8 5 12 15 16 11 13 11 2 4 8 6 8 10 11 6 4 4
6 4 5 14 8 12 19 21 22 10 15 10 9 6 3 11 8 14 13 11 10 7 6 10 10 12 16 14 9 11 14 15 13 14 7 7 10 10 7 11 12 12 11 10 10
6 5 8 14 20 13 13 17 16 13 19 16 12 13 10 12 8 6 14 9 7 12 2 7 13 15 11 11 5 19 16 11 14 8 10 12 21 16 13 13 14 13 13 14 14
7 4 5 7 13 14 14 12 16 16 13 13 14 18 16 14 15 14 13 10 8 6 6 9 15 17 16 16 8 15 12 16 14 16 16 8 4 18 15 16 16 16 16 17 17
8 6 6 14 6 9 6 13 13 11 12 10 15 17 15 19 17 15 14 15 11 13 13 14 14 10 15 14 12 15 16 17 19 13 17 13 14 16 18 20 19 18 18 19 18
8 6 7 5 11 10 12 13 9 13 6 10 12 9 13 10 14 10 11 15 8 10 13 16 12 13 15 17 16 13 15 17 17 16 12 10 11 17 16 15 17 18 17 19 19
Wind_Direction
21 8 359 343 266 212 229 230 236 237 232 240 262 283 294 297 293 284 281 253 245 253 181 152 189 243 251 269 249 277 267 171 161 126 126 144 117 88 102 131 118 111 136 142 150
11 7 343 329 292 244 215 215 226 241 245 243 254 270 282 292 289 256 249 235 230 192 155 170 204 217 255 250 235 246 272 106 98 129 136 146 125 123 132 120 117 111 120 143 152
3 355 336 310 286 260 239 222 220 224 230 242 259 276 290 305 292 135 214 178 164 151 158 201 240 246 243 213 121 242 157 108 101 119 133 139 124 162 131 175 144 143 144 152 157
353 348 324 304 280 246 239 233 229 235 233 224 234 264 290 319 348 115 141 151 155 151 182 209 264 251 242 112 89 292 74 105 123 153 137 167 126 142 82 72 131 148 156 158 163
350 341 322 293 274 260 228 231 222 231 239 244 231 251 262 251 39 177 155 153 149 150 197 242 266 315 34 107 140 350 100 108 114 141 131 130 163 120 114 121 130 147 159 164 169
352 339 318 291 263 255 245 225 222 223 225 231 243 253 271 250 54 213 171 155 170 179 221 256 331 333 280 338 46 55 140 124 130 122 142 157 129 186 128 141 134 154 167 173 175
352 339 318 288 268 243 245 241 221 227 231 225 222 266 262 330 166 178 181 181 186 202 244 286 312 301 331 228 20 195 155 167 145 168 148 217 164 213 142 157 151 165 174 178 181
348 341 320 291 266 248 225 238 220 220 224 219 231 221 285 207 171 181 184 196 212 226 259 290 301 283 258 271 235 224 225 63 146 173 131 227 308 147 155 170 164 172 176 183 184
344 339 325 295 261 244 222 222 216 213 215 210 197 235 222 190 184 190 190 204 215 232 252 277 288 270 235 253 11 333 267 150 201 197 145 238 190 139 160 175 173 177 177 186 187
343 336 327 296 255 234 213 195 208 214 210 213 226 238 218 217 184 188 196 213 216 228 250 254 249 247 183 151 198 239 247 322 179 177 211 196 246 145 176 189 184 185 182 186 190
342 337 327 307 247 217 192 167 208 225 209 214 208 221 143 156 173 187 194 207 217 230 239 204 258 113 253 165 340 302 306 301 201 123 271 277 275 182 184 211 187 186 183 190 193
339 337 327 306 235 211 199 214 337 340 247 221 224 229 183 179 181 196 195 206 212 230 218 221 238 173 22 297 279 272 77 274 352 23 248 207 227 263 185 194 210 191 183 190 191
333 336 329 305 241 221 204 228 261 314 258 203 213 218 203 209 225 190 199 212 227 231 252 251 71 324 254 288 290 326 106 249 184 207 221 247 281 199 190 194 199 197 188 192 189
328 329 330 313 149 214 232 236 241 297 273 184 202 224 214 208 229 228 205 217 231 248 244 246 255 208 258 263 284 109 336 286 8 293 99 284 25 288 174 199 183 196 181 188 187
321 317 313 221 207 194 164 184 239 256 267 130 160 167 191 205 229 206 207 222 249 233 252 250 231 210 246 222 305 14 320 323 342 261 280 296 235 21 258 180 184 203 184 185 185
315 307 295 259 217 191 220 221 209 233 250 157 158 194 204 201 223 172 204 220 239 254 250 255 289 289 263 289 257 315 275 230 162 202 290 294 108 335 287 165 179 199 190 189 179
310 298 272 234 173 206 198 195 222 244 92 160 176 181 197 192 214 183 199 203 223 222 240 234 248 231 230 254 247 231 256 254 219 204 161 250 266 178 256 197 212 178 181 178 176
307 292 263 229 217 196 191 220 250 226 227 91 186 181 202 189 213 198 209 218 217 240 254 225 222 222 217 221 262 277 280 292 295 244 173 245 100 91 78 108 136 170 166 167 179
312 297 255 246 203 186 208 223 217 251 288 204 189 204 200 210 212 203 218 225 222 216 247 251 250 282 209 214 217 256 253 287 292 285 230 138 91 104 70 81 131 148 154 168 178
311 237 216 202 189 183 225 241 245 308 323 265 241 206 219 204 200 238 207 223 240 228 217 254 279 223 227 226 252 263 279 271 236 272 276 120 122 114 83 111 129 151 160 168 171
262 221 183 184 173 204 223 233 240 186 243 263 251 264 250 234 210 230 215 203 239 218 229 227 246 225 184 211 229 192 233 256 278 279 259 220 69 52 123 159 134 128 134 156 189
255 228 164 166 194 216 227 242 256 256 211 256 270 288 289 251 233 232 215 231 164 245 207 231 254 236 205 209 300 293 295 213 238 241 274 22 155 154 174 139 137 112 127 124 148
252 145 181 179 223 223 224 242 249 228 240 237 242 243 318 281 251 243 225 107 154 226 237 246 227 250 230 211 193 236 242 266 254 260 279 291 134 151 145 132 122 130 128 124 124
265 207 163 209 248 286 233 233 242 215 264 273 269 276 275 255 258 275 236 144 189 240 343 281 262 248 246 235 272 192 231 219 280 256 243 229 141 155 145 130 127 127 122 114 112
232 283 6 200 226 236 258 262 234 237 197 260 248 247 253 252 253 212 255 186 197 178 229 236 252 267 273 289 298 287 216 214 229 272 290 44 140 144 142 134 133 132 128 123 118
317 332 324 284 283 258 218 246 248 242 237 238 231 270 238 240 261 262 235 239 209 180 235 222 256 269 283 273 260 266 266 271 279 231 261 286 111 114 128 124 138 139 137 129 125
342 298 282 251 238 226 241 226 222 258 275 256 296 283 267 266 314 314 295 300 307 200 216 242 249 249 252 260 265 235 252 258 259 267 246 260 271 138 132 145 147 147 145 140 134